,,,PA_Meas_PMT16A,,PR_Meas_QMR101_102,,RH_Meas_QMH101,,SR_Meas_QMS101,,TA_Meas_QMH101,,GenWind,,GenWind,
date,time,status,PA,status,PR,status,RH,status,SR,status,TA,status,DirAvg,status,SpdAvg,
2009-07-04, 00:00:04,VALID,1000.66,VALID,0,VALID,94.6378,VALID,0,VALID,21.8692,VALID,41,VALID,0.276953,
2009-07-04, 00:01:04,VALID,1000.68,VALID,0,VALID,94.6607,VALID,0,VALID,21.9082,VALID,41,VALID,0.428906,
2009-07-04, 00:02:04,VALID,1000.66,VALID,0,VALID,94.6988,VALID,0,VALID,21.926,VALID,129,VALID,0.668359,
2009-07-04, 00:03:04,VALID,1000.68,VALID,0,VALID,94.7751,VALID,0,VALID,22.0252,VALID,154,VALID,1.00742,
2009-07-04, 00:04:04,VALID,1000.69,VALID,0,VALID,94.7675,VALID,0,VALID,22.043,VALID,158,VALID,0.812109,
2009-07-04, 00:05:04,VALID,1000.68,VALID,0,VALID,94.7294,VALID,0,VALID,22.082,VALID,158,VALID,0.571484,
2009-07-04, 00:06:04,VALID,1000.66,VALID,0,VALID,94.6988,VALID,0,VALID,22.0625,VALID,158,VALID,0.868359,
2009-07-04, 00:07:04,VALID,1000.67,VALID,0,VALID,94.7217,VALID,0,VALID,22.1015,VALID,124,VALID,0.923828,
2009-07-04, 00:08:04,VALID,1000.67,VALID,0,VALID,94.6378,VALID,0,VALID,22.1422,VALID,118,VALID,1.04805,
2009-07-04, 00:09:04,VALID,1000.65,VALID,0,VALID,94.5691,VALID,0,VALID,22.121,VALID,119,VALID,0.832031,
2009-07-04, 00:10:04,VALID,1000.67,VALID,0,VALID,94.4394,VALID,0,VALID,22.1227,VALID,119,VALID,0.684375,
2009-07-04, 00:11:04,VALID,1000.68,VALID,0,VALID,94.3479,VALID,0,VALID,22.0625,VALID,114,VALID,0.691797,
2009-07-04, 00:12:04,VALID,1000.64,VALID,0,VALID,94.2487,VALID,0,VALID,22.0447,VALID,110,VALID,0.859375,
2009-07-04, 00:13:04,VALID,1000.64,VALID,0,VALID,94.2029,VALID,0,VALID,22.004,VALID,110,VALID,0.862109,
2009-07-04, 00:14:04,VALID,1000.65,VALID,0,VALID,94.2411,VALID,0,VALID,22.004,VALID,110,VALID,0.730859,
2009-07-04, 00:15:04,VALID,1000.63,VALID,0,VALID,94.2868,VALID,0,VALID,22.0235,VALID,109,VALID,0.515234,
2009-07-04, 00:16:04,VALID,1000.62,VALID,0,VALID,94.2258,VALID,0,VALID,22.0057,VALID,110,VALID,0.423047,
2009-07-04, 00:17:04,VALID,1000.63,VALID,0,VALID,94.2334,VALID,0,VALID,22.0057,VALID,111,VALID,0.216797,
2009-07-04, 00:18:04,VALID,1000.6,VALID,0,VALID,94.3555,VALID,0,VALID,22.0252,VALID,140,VALID,0.829297,
2009-07-04, 00:19:04,VALID,1000.55,VALID,0,VALID,94.4013,VALID,0,VALID,22.0235,VALID,132,VALID,0.421875,
2009-07-04, 00:20:04,VALID,1000.51,VALID,0,VALID,94.3555,VALID,0,VALID,22.0447,VALID,132,VALID,0.279297,
2009-07-04, 00:21:04,VALID,1000.48,VALID,0,VALID,94.325,VALID,0,VALID,22.0235,VALID,132,VALID,0,
2009-07-04, 00:22:04,VALID,1000.46,VALID,0,VALID,94.2945,VALID,0,VALID,22.004,VALID,132,VALID,0,
2009-07-04, 00:23:04,VALID,1000.45,VALID,0,VALID,94.2487,VALID,0,VALID,21.9862,VALID,132,VALID,0,
2009-07-04, 00:24:04,VALID,1000.41,VALID,0,VALID,94.264,VALID,0,VALID,21.9862,VALID,132,VALID,0,
2009-07-04, 00:25:04,VALID,1000.44,VALID,0,VALID,94.3479,VALID,0,VALID,21.9862,VALID,132,VALID,0.465625,
2009-07-04, 00:26:04,VALID,1000.43,VALID,0,VALID,94.4089,VALID,0,VALID,22.0252,VALID,132,VALID,0.549609,
2009-07-04, 00:27:04,VALID,1000.4,VALID,0,VALID,94.4547,VALID,0,VALID,22.0447,VALID,132,VALID,0.522266,
2009-07-04, 00:28:04,VALID,1000.35,VALID,0,VALID,94.4318,VALID,0,VALID,22.043,VALID,132,VALID,0.292188,
2009-07-04, 00:29:04,VALID,1000.38,VALID,0,VALID,94.4089,VALID,0,VALID,22.0642,VALID,132,VALID,0.421875,
2009-07-04, 00:30:04,VALID,1000.34,VALID,0,VALID,94.3784,VALID,0,VALID,22.0642,VALID,132,VALID,0.412891,
2009-07-04, 00:31:04,VALID,1000.34,VALID,0,VALID,94.3937,VALID,0,VALID,22.043,VALID,132,VALID,0.559766,
2009-07-04, 00:32:04,VALID,1000.3,VALID,0,VALID,94.4089,VALID,0,VALID,22.0642,VALID,129,VALID,0.539844,
2009-07-04, 00:33:04,VALID,1000.31,VALID,0,VALID,94.4089,VALID,0,VALID,22.0837,VALID,113,VALID,0.460938,
2009-07-04, 00:34:04,VALID,1000.3,VALID,0,VALID,94.4013,VALID,0,VALID,22.0625,VALID,113,VALID,0.421875,
2009-07-04, 00:35:04,VALID,1000.3,VALID,0,VALID,94.3937,VALID,0,VALID,22.0837,VALID,113,VALID,0.478516,
2009-07-04, 00:36:04,VALID,1000.29,VALID,0,VALID,94.3937,VALID,0,VALID,22.082,VALID,113,VALID,0.324609,
2009-07-04, 00:37:04,VALID,1000.25,VALID,0,VALID,94.386,VALID,0,VALID,22.0837,VALID,113,VALID,0.351172,
2009-07-04, 00:38:04,VALID,1000.25,VALID,0,VALID,94.3479,VALID,0,VALID,22.0625,VALID,113,VALID,0.218359,
2009-07-04, 00:39:04,VALID,1000.27,VALID,0,VALID,94.325,VALID,0,VALID,22.0642,VALID,113,VALID,0.234766,
2009-07-04, 00:40:04,VALID,1000.22,VALID,0,VALID,94.2029,VALID,0,VALID,21.9845,VALID,113,VALID,0.176172,
2009-07-04, 00:41:04,VALID,1000.23,VALID,0,VALID,94.0885,VALID,0,VALID,21.926,VALID,113,VALID,0.430469,
2009-07-04, 00:42:04,VALID,1000.24,VALID,0,VALID,94.1877,VALID,0,VALID,21.9065,VALID,113,VALID,0.405469,
2009-07-04, 00:43:04,VALID,1000.19,VALID,0,VALID,94.264,VALID,0,VALID,21.887,VALID,113,VALID,0.353906,
2009-07-04, 00:44:04,VALID,1000.2,VALID,0,VALID,94.2716,VALID,0,VALID,21.887,VALID,113,VALID,0.400781,
2009-07-04, 00:45:04,VALID,1000.21,VALID,0,VALID,94.2334,VALID,0,VALID,21.8675,VALID,113,VALID,0.436328,
2009-07-04, 00:46:04,VALID,1000.18,VALID,0,VALID,94.3021,VALID,0,VALID,21.848,VALID,113,VALID,0.323047,
2009-07-04, 00:47:04,VALID,1000.17,VALID,0,VALID,94.3403,VALID,0,VALID,21.8285,VALID,113,VALID,0.204688,
2009-07-04, 00:48:04,VALID,1000.16,VALID,0,VALID,94.2258,VALID,0,VALID,21.77,VALID,113,VALID,0.183203,
2009-07-04, 00:49:04,VALID,1000.16,VALID,0,VALID,94.2945,VALID,0,VALID,21.77,VALID,113,VALID,0.232031,
2009-07-04, 00:50:04,VALID,1000.15,VALID,0,VALID,94.3403,VALID,0,VALID,21.77,VALID,113,VALID,0.296094,
2009-07-04, 00:51:04,VALID,1000.12,VALID,0,VALID,94.4394,VALID,0,VALID,21.7895,VALID,113,VALID,0.33125,
2009-07-04, 00:52:04,VALID,1000.13,VALID,0,VALID,94.4394,VALID,0,VALID,21.77,VALID,113,VALID,0.412109,
2009-07-04, 00:53:04,VALID,1000.12,VALID,0,VALID,94.4394,VALID,0,VALID,21.7505,VALID,113,VALID,0.345703,
2009-07-04, 00:54:04,VALID,1000.13,VALID,0,VALID,94.3784,VALID,0,VALID,21.7115,VALID,113,VALID,0.322266,
2009-07-04, 00:55:04,VALID,1000.13,VALID,0,VALID,94.3479,VALID,0,VALID,21.692,VALID,113,VALID,0.344531,
2009-07-04, 00:56:04,VALID,1000.15,VALID,0,VALID,94.4547,VALID,0,VALID,21.692,VALID,113,VALID,0.419141,
2009-07-04, 00:57:04,VALID,1000.13,VALID,0,VALID,94.5462,VALID,0,VALID,21.7115,VALID,113,VALID,0.372266,
2009-07-04, 00:58:04,VALID,1000.15,VALID,0,VALID,94.531,VALID,0,VALID,21.7115,VALID,113,VALID,0.0890625,
2009-07-04, 00:59:04,VALID,1000.15,VALID,0,VALID,94.5234,VALID,0,VALID,21.692,VALID,113,VALID,0,
2009-07-04, 01:00:04,VALID,1000.16,VALID,0,VALID,94.531,VALID,0,VALID,21.6725,VALID,113,VALID,0.046875,
2009-07-04, 01:01:04,VALID,1000.16,VALID,0,VALID,94.5386,VALID,0,VALID,21.6725,VALID,113,VALID,0.00429688,
2009-07-04, 01:02:04,VALID,1000.15,VALID,0,VALID,94.5462,VALID,0,VALID,21.6725,VALID,113,VALID,0,
2009-07-04, 01:03:04,VALID,1000.12,VALID,0,VALID,94.5768,VALID,0,VALID,21.653,VALID,113,VALID,0.265234,
2009-07-04, 01:04:04,VALID,1000.13,VALID,0,VALID,94.531,VALID,0,VALID,21.653,VALID,71,VALID,0.527344,
2009-07-04, 01:05:04,VALID,1000.11,VALID,0,VALID,94.5768,VALID,0,VALID,21.6335,VALID,67,VALID,0.463281,
2009-07-04, 01:06:04,VALID,1000.11,VALID,0,VALID,94.6378,VALID,0,VALID,21.653,VALID,30,VALID,0.646875,
2009-07-04, 01:07:04,VALID,1000.11,VALID,0,VALID,94.6912,VALID,0,VALID,21.6936,VALID,12,VALID,0.977734,
2009-07-04, 01:08:04,VALID,1000.08,VALID,0,VALID,94.6912,VALID,0,VALID,21.692,VALID,6,VALID,0.9,
2009-07-04, 01:09:04,VALID,1000.07,VALID,0,VALID,94.6683,VALID,0,VALID,21.6725,VALID,6,VALID,0.910937,
2009-07-04, 01:10:04,VALID,1000.04,VALID,0,VALID,94.6531,VALID,0,VALID,21.6936,VALID,7,VALID,0.958203,
2009-07-04, 01:11:04,VALID,1000.02,VALID,0,VALID,94.6683,VALID,0,VALID,21.653,VALID,8,VALID,0.937891,
2009-07-04, 01:12:04,VALID,1000.03,VALID,0,VALID,94.6607,VALID,0,VALID,21.653,VALID,8,VALID,0.970703,
2009-07-04, 01:13:04,VALID,1000,VALID,0,VALID,94.6302,VALID,0,VALID,21.6546,VALID,13,VALID,1.07891,
2009-07-04, 01:14:04,VALID,1000,VALID,0,VALID,94.6226,VALID,0.112286,VALID,21.614,VALID,14,VALID,1.1293,
2009-07-04, 01:15:04,VALID,999.976,VALID,0,VALID,94.5005,VALID,0,VALID,21.5555,VALID,15,VALID,1.16367,
2009-07-04, 01:16:04,VALID,999.966,VALID,0,VALID,94.4623,VALID,0.112286,VALID,21.497,VALID,16,VALID,1.19375,
2009-07-04, 01:17:04,VALID,999.963,VALID,0,VALID,94.4623,VALID,0,VALID,21.458,VALID,19,VALID,1.04492,
2009-07-04, 01:18:04,VALID,999.968,VALID,0,VALID,94.6912,VALID,0.112286,VALID,21.497,VALID,22,VALID,0.854297,
2009-07-04, 01:19:04,VALID,999.951,VALID,0,VALID,94.6531,VALID,0,VALID,21.497,VALID,30,VALID,0.708203,
2009-07-04, 01:20:04,VALID,999.942,VALID,0,VALID,94.6378,VALID,0,VALID,21.497,VALID,33,VALID,0.541797,
2009-07-04, 01:21:04,VALID,999.937,VALID,0,VALID,94.6302,VALID,0.112286,VALID,21.497,VALID,34,VALID,0.428516,
2009-07-04, 01:22:04,VALID,999.904,VALID,0,VALID,94.6454,VALID,0.112286,VALID,21.497,VALID,34,VALID,0.266406,
2009-07-04, 01:23:04,VALID,999.921,VALID,0,VALID,94.6912,VALID,0.112286,VALID,21.497,VALID,34,VALID,0.182031,
2009-07-04, 01:24:04,VALID,999.896,VALID,0,VALID,94.6988,VALID,0,VALID,21.5165,VALID,34,VALID,0.187109,
2009-07-04, 01:25:04,VALID,999.887,VALID,0,VALID,94.7141,VALID,0,VALID,21.536,VALID,34,VALID,0.257422,
2009-07-04, 01:26:04,VALID,999.873,VALID,0,VALID,94.7599,VALID,0,VALID,21.5555,VALID,41,VALID,0.433984,
2009-07-04, 01:27:04,VALID,999.852,VALID,0,VALID,94.7904,VALID,0,VALID,21.5945,VALID,144,VALID,0.633203,
2009-07-04, 01:28:04,VALID,999.849,VALID,0,VALID,94.798,VALID,0,VALID,21.614,VALID,146,VALID,0.535937,
2009-07-04, 01:29:04,VALID,999.868,VALID,0,VALID,94.7828,VALID,0,VALID,21.6335,VALID,148,VALID,0.529297,
2009-07-04, 01:30:04,VALID,999.836,VALID,0,VALID,94.7828,VALID,0.112286,VALID,21.6335,VALID,148,VALID,0.360547,
2009-07-04, 01:31:04,VALID,999.838,VALID,0,VALID,94.8209,VALID,0.112286,VALID,21.6725,VALID,148,VALID,0.190234,
2009-07-04, 01:32:04,VALID,999.837,VALID,0,VALID,94.8133,VALID,0.112286,VALID,21.692,VALID,148,VALID,0.0164062,
2009-07-04, 01:33:04,VALID,999.839,VALID,0,VALID,94.7828,VALID,0,VALID,21.6903,VALID,148,VALID,0,
2009-07-04, 01:34:04,VALID,999.853,VALID,0,VALID,94.737,VALID,0.112286,VALID,21.653,VALID,148,VALID,0,
2009-07-04, 01:35:04,VALID,999.861,VALID,0,VALID,94.6988,VALID,0,VALID,21.6546,VALID,148,VALID,0,
2009-07-04, 01:36:04,VALID,999.88,VALID,0,VALID,94.7446,VALID,0,VALID,21.6335,VALID,148,VALID,0,
2009-07-04, 01:37:04,VALID,999.873,VALID,0,VALID,94.737,VALID,0,VALID,21.6335,VALID,148,VALID,0,
2009-07-04, 01:38:04,VALID,999.907,VALID,0,VALID,94.6988,VALID,0.112286,VALID,21.6335,VALID,148,VALID,0,
2009-07-04, 01:39:04,VALID,999.905,VALID,0,VALID,94.7904,VALID,0,VALID,21.6725,VALID,148,VALID,0,
2009-07-04, 01:40:04,VALID,999.901,VALID,0,VALID,94.943,VALID,0,VALID,21.7115,VALID,113,VALID,0.605859,
2009-07-04, 01:41:04,VALID,999.885,VALID,0,VALID,94.8362,VALID,0,VALID,21.7505,VALID,95,VALID,0.451172,
2009-07-04, 01:42:04,VALID,999.904,VALID,0,VALID,94.9354,VALID,0,VALID,21.809,VALID,77,VALID,0.604297,
2009-07-04, 01:43:04,VALID,999.902,VALID,0,VALID,94.8362,VALID,0,VALID,21.809,VALID,55,VALID,0.623047,
2009-07-04, 01:44:04,VALID,999.886,VALID,0,VALID,94.8209,VALID,0,VALID,21.8285,VALID,44,VALID,0.70625,
2009-07-04, 01:45:04,VALID,999.877,VALID,0,VALID,94.5462,VALID,0,VALID,21.7115,VALID,27,VALID,1.04375,
2009-07-04, 01:46:04,VALID,999.919,VALID,0,VALID,94.5157,VALID,0,VALID,21.614,VALID,27,VALID,1.13281,
2009-07-04, 01:47:04,VALID,999.864,VALID,0,VALID,94.5081,VALID,0,VALID,21.5961,VALID,27,VALID,1.29297,
2009-07-04, 01:48:04,VALID,999.864,VALID,0,VALID,94.5462,VALID,0,VALID,21.5555,VALID,26,VALID,1.33594,
2009-07-04, 01:49:04,VALID,999.872,VALID,0,VALID,94.5768,VALID,0,VALID,21.5555,VALID,23,VALID,1.31211,
2009-07-04, 01:50:04,VALID,999.829,VALID,0,VALID,94.531,VALID,0,VALID,21.5165,VALID,20,VALID,1.30977,
2009-07-04, 01:51:04,VALID,999.875,VALID,0,VALID,94.5462,VALID,0,VALID,21.4775,VALID,18,VALID,1.30469,
2009-07-04, 01:52:04,VALID,999.831,VALID,0,VALID,94.6683,VALID,0,VALID,21.536,VALID,11,VALID,1.16367,
2009-07-04, 01:53:04,VALID,999.862,VALID,0,VALID,94.676,VALID,0,VALID,21.536,VALID,9,VALID,1.06055,
2009-07-04, 01:54:04,VALID,999.849,VALID,0,VALID,94.676,VALID,0,VALID,21.5165,VALID,10,VALID,0.901563,
2009-07-04, 01:55:04,VALID,999.83,VALID,0,VALID,94.5691,VALID,0,VALID,21.4986,VALID,11,VALID,0.748438,
2009-07-04, 01:56:04,VALID,999.832,VALID,0,VALID,94.531,VALID,0,VALID,21.419,VALID,11,VALID,0.571875,
2009-07-04, 01:57:04,VALID,999.854,VALID,0,VALID,94.5005,VALID,0,VALID,21.3995,VALID,11,VALID,0.273438,
2009-07-04, 01:58:04,VALID,999.811,VALID,0,VALID,94.5234,VALID,0,VALID,21.3394,VALID,11,VALID,0.0816406,
2009-07-04, 01:59:04,VALID,999.774,VALID,0,VALID,94.5234,VALID,0,VALID,21.341,VALID,11,VALID,0,
2009-07-04, 02:00:04,VALID,999.801,VALID,0,VALID,94.5005,VALID,0,VALID,21.3215,VALID,11,VALID,0,
2009-07-04, 02:01:04,VALID,999.789,VALID,0,VALID,94.5768,VALID,0,VALID,21.302,VALID,11,VALID,0.112109,
2009-07-04, 02:02:04,VALID,999.764,VALID,0,VALID,94.6378,VALID,0,VALID,21.3215,VALID,11,VALID,0.160938,
2009-07-04, 02:03:04,VALID,999.79,VALID,0,VALID,94.6836,VALID,0,VALID,21.341,VALID,11,VALID,0.168359,
2009-07-04, 02:04:04,VALID,999.819,VALID,0,VALID,94.7065,VALID,0,VALID,21.3605,VALID,11,VALID,0.301172,
2009-07-04, 02:05:04,VALID,999.846,VALID,0,VALID,94.6988,VALID,0,VALID,21.3605,VALID,10,VALID,0.371094,
2009-07-04, 02:06:04,VALID,999.842,VALID,0,VALID,94.7141,VALID,0,VALID,21.38,VALID,11,VALID,0.462891,
2009-07-04, 02:07:04,VALID,999.883,VALID,0,VALID,94.737,VALID,0,VALID,21.4206,VALID,11,VALID,0.437891,
2009-07-04, 02:08:04,VALID,999.885,VALID,0,VALID,94.7294,VALID,0,VALID,21.38,VALID,10,VALID,0.476563,
2009-07-04, 02:09:04,VALID,999.9,VALID,0,VALID,94.8438,VALID,0,VALID,21.419,VALID,11,VALID,0.457031,
2009-07-04, 02:10:04,VALID,999.899,VALID,0,VALID,94.8896,VALID,0,VALID,21.458,VALID,11,VALID,0.379687,
2009-07-04, 02:11:04,VALID,999.908,VALID,0,VALID,94.9048,VALID,0,VALID,21.5376,VALID,11,VALID,0.279687,
2009-07-04, 02:12:04,VALID,999.929,VALID,0,VALID,94.8362,VALID,0,VALID,21.5165,VALID,11,VALID,0.170312,
2009-07-04, 02:13:04,VALID,999.919,VALID,0,VALID,94.8209,VALID,0,VALID,21.5165,VALID,11,VALID,0.238672,
2009-07-04, 02:14:04,VALID,999.903,VALID,0,VALID,94.7828,VALID,0,VALID,21.4775,VALID,11,VALID,0.273438,
2009-07-04, 02:15:04,VALID,999.887,VALID,0,VALID,94.8743,VALID,0,VALID,21.497,VALID,11,VALID,0.319531,
2009-07-04, 02:16:04,VALID,999.897,VALID,0,VALID,94.9201,VALID,0,VALID,21.5555,VALID,10,VALID,0.317187,
2009-07-04, 02:17:04,VALID,999.906,VALID,0,VALID,94.9277,VALID,0,VALID,21.6156,VALID,11,VALID,0.271875,
2009-07-04, 02:18:04,VALID,999.903,VALID,0,VALID,94.9277,VALID,0,VALID,21.6351,VALID,11,VALID,0.259766,
2009-07-04, 02:19:04,VALID,999.895,VALID,0,VALID,94.8667,VALID,0,VALID,21.6351,VALID,11,VALID,0.125781,
2009-07-04, 02:20:04,VALID,999.916,VALID,0,VALID,94.8591,VALID,0,VALID,21.6156,VALID,11,VALID,0.248828,
2009-07-04, 02:21:04,VALID,999.936,VALID,0,VALID,94.8438,VALID,0,VALID,21.614,VALID,11,VALID,0.212109,
2009-07-04, 02:22:04,VALID,999.945,VALID,0,VALID,94.9277,VALID,0,VALID,21.6335,VALID,11,VALID,0.24375,
2009-07-04, 02:23:04,VALID,999.969,VALID,0,VALID,94.8133,VALID,0,VALID,21.6335,VALID,10,VALID,0.241797,
2009-07-04, 02:24:04,VALID,999.959,VALID,0,VALID,94.8133,VALID,0,VALID,21.5945,VALID,11,VALID,0.136328,
2009-07-04, 02:25:04,VALID,999.978,VALID,0,VALID,94.8362,VALID,0,VALID,21.6351,VALID,11,VALID,0.248437,
2009-07-04, 02:26:04,VALID,999.983,VALID,0,VALID,94.7523,VALID,0,VALID,21.5555,VALID,11,VALID,0.471484,
2009-07-04, 02:27:04,VALID,999.982,VALID,0,VALID,94.8743,VALID,0,VALID,21.575,VALID,11,VALID,0.407031,
2009-07-04, 02:28:04,VALID,999.999,VALID,0,VALID,94.8896,VALID,0,VALID,21.614,VALID,11,VALID,0.600391,
2009-07-04, 02:29:04,VALID,1000,VALID,0,VALID,94.882,VALID,0,VALID,21.614,VALID,11,VALID,0.653906,
2009-07-04, 02:30:04,VALID,1000,VALID,0,VALID,94.8362,VALID,0,VALID,21.614,VALID,10,VALID,0.955469,
2009-07-04, 02:31:04,VALID,1000.04,VALID,0,VALID,94.8285,VALID,0,VALID,21.614,VALID,10,VALID,0.984375,
2009-07-04, 02:32:04,VALID,1000.04,VALID,0,VALID,94.7599,VALID,0,VALID,21.5945,VALID,10,VALID,1.05195,
2009-07-04, 02:33:04,VALID,1000.05,VALID,0,VALID,94.8285,VALID,0,VALID,21.536,VALID,11,VALID,0.980469,
2009-07-04, 02:34:04,VALID,1000.06,VALID,0,VALID,94.8591,VALID,0,VALID,21.5945,VALID,16,VALID,1.16914,
2009-07-04, 02:35:04,VALID,1000.06,VALID,0,VALID,94.7904,VALID,0,VALID,21.5945,VALID,25,VALID,1.07148,
2009-07-04, 02:36:04,VALID,1000.06,VALID,0,VALID,94.7523,VALID,0,VALID,21.5555,VALID,27,VALID,1.03828,
2009-07-04, 02:37:04,VALID,1000.07,VALID,0,VALID,94.6607,VALID,0,VALID,21.536,VALID,27,VALID,0.835547,
2009-07-04, 02:38:04,VALID,1000.04,VALID,0,VALID,94.7446,VALID,0,VALID,21.5571,VALID,28,VALID,0.61875,
2009-07-04, 02:39:04,VALID,1000.06,VALID,0,VALID,94.7065,VALID,0,VALID,21.536,VALID,28,VALID,0.5125,
2009-07-04, 02:40:04,VALID,1000.04,VALID,0,VALID,94.6378,VALID,0,VALID,21.5165,VALID,28,VALID,0.422656,
2009-07-04, 02:41:04,VALID,1000.07,VALID,0,VALID,94.6073,VALID,0,VALID,21.4775,VALID,28,VALID,0.382031,
2009-07-04, 02:42:04,VALID,1000.06,VALID,0,VALID,94.6683,VALID,0,VALID,21.458,VALID,28,VALID,0.447656,
2009-07-04, 02:43:04,VALID,1000.04,VALID,0,VALID,94.7523,VALID,0,VALID,21.5165,VALID,28,VALID,0.874609,
2009-07-04, 02:44:04,VALID,1000.03,VALID,0,VALID,94.8133,VALID,0,VALID,21.575,VALID,28,VALID,1.11641,
2009-07-04, 02:45:04,VALID,1000,VALID,0,VALID,94.7141,VALID,0,VALID,21.575,VALID,28,VALID,0.840625,
2009-07-04, 02:46:04,VALID,1000.01,VALID,0,VALID,94.5844,VALID,0,VALID,21.5165,VALID,20,VALID,0.538672,
2009-07-04, 02:47:04,VALID,999.994,VALID,0,VALID,94.5615,VALID,0,VALID,21.4775,VALID,356,VALID,0.732031,
2009-07-04, 02:48:04,VALID,1000.02,VALID,0,VALID,94.6378,VALID,0,VALID,21.536,VALID,356,VALID,0.400391,
2009-07-04, 02:49:04,VALID,999.984,VALID,0,VALID,94.737,VALID,0,VALID,21.575,VALID,4,VALID,0.851172,
2009-07-04, 02:50:04,VALID,999.994,VALID,0,VALID,94.7523,VALID,0,VALID,21.614,VALID,26,VALID,1.09531,
2009-07-04, 02:51:04,VALID,999.996,VALID,0,VALID,94.6302,VALID,0,VALID,21.6335,VALID,27,VALID,0.948438,
2009-07-04, 02:52:04,VALID,999.996,VALID,0,VALID,94.5539,VALID,0,VALID,21.6351,VALID,27,VALID,0.737109,
2009-07-04, 02:53:04,VALID,999.994,VALID,0,VALID,94.5081,VALID,0,VALID,21.5945,VALID,12,VALID,0.782031,
2009-07-04, 02:54:04,VALID,999.993,VALID,0,VALID,94.47,VALID,0,VALID,21.5945,VALID,12,VALID,0.69375,
2009-07-04, 02:55:04,VALID,999.984,VALID,0,VALID,94.4089,VALID,0,VALID,21.5945,VALID,12,VALID,0.676953,
2009-07-04, 02:56:04,VALID,999.973,VALID,0,VALID,94.4318,VALID,0,VALID,21.6351,VALID,12,VALID,0.540234,
2009-07-04, 02:57:04,VALID,999.999,VALID,0,VALID,94.4089,VALID,0,VALID,21.614,VALID,12,VALID,0.136328,
2009-07-04, 02:58:04,VALID,999.984,VALID,0,VALID,94.3403,VALID,0,VALID,21.614,VALID,12,VALID,0,
2009-07-04, 02:59:04,VALID,999.953,VALID,0,VALID,94.325,VALID,0,VALID,21.5945,VALID,12,VALID,0.445703,
2009-07-04, 03:00:04,VALID,999.981,VALID,0,VALID,94.2945,VALID,0,VALID,21.575,VALID,12,VALID,0.0316406,
2009-07-04, 03:01:04,VALID,999.944,VALID,0,VALID,94.2792,VALID,0,VALID,21.575,VALID,12,VALID,0,
2009-07-04, 03:02:04,VALID,999.942,VALID,0,VALID,94.325,VALID,0,VALID,21.575,VALID,12,VALID,0.419531,
2009-07-04, 03:03:04,VALID,999.987,VALID,0,VALID,94.4242,VALID,0,VALID,21.575,VALID,12,VALID,0.538672,
2009-07-04, 03:04:04,VALID,999.954,VALID,0,VALID,94.5157,VALID,0,VALID,21.6335,VALID,12,VALID,0.521875,
2009-07-04, 03:05:04,VALID,999.929,VALID,0,VALID,94.4547,VALID,0,VALID,21.6725,VALID,12,VALID,0.576172,
2009-07-04, 03:06:04,VALID,999.879,VALID,0,VALID,94.4318,VALID,0,VALID,21.6936,VALID,38,VALID,0.821484,
2009-07-04, 03:07:04,VALID,999.898,VALID,0,VALID,94.47,VALID,0,VALID,21.7326,VALID,38,VALID,0.389062,
2009-07-04, 03:08:04,VALID,999.848,VALID,0,VALID,94.4547,VALID,0,VALID,21.7505,VALID,38,VALID,0.328125,
2009-07-04, 03:09:04,VALID,999.828,VALID,0,VALID,94.1648,VALID,0,VALID,21.7131,VALID,38,VALID,0.392578,
2009-07-04, 03:10:04,VALID,999.811,VALID,0,VALID,94.1266,VALID,0,VALID,21.6741,VALID,38,VALID,0.563672,
2009-07-04, 03:11:04,VALID,999.808,VALID,0,VALID,94.2563,VALID,0,VALID,21.7131,VALID,38,VALID,0.603125,
2009-07-04, 03:12:04,VALID,999.796,VALID,0,VALID,94.1877,VALID,0,VALID,21.7131,VALID,38,VALID,0.580859,
2009-07-04, 03:13:04,VALID,999.811,VALID,0,VALID,94.1495,VALID,0,VALID,21.653,VALID,47,VALID,0.521484,
2009-07-04, 03:14:04,VALID,999.826,VALID,0,VALID,94.2487,VALID,0,VALID,21.6725,VALID,104,VALID,0.430859,
2009-07-04, 03:15:04,VALID,999.862,VALID,0,VALID,94.2716,VALID,0,VALID,21.7115,VALID,104,VALID,0.526172,
2009-07-04, 03:16:04,VALID,999.806,VALID,0,VALID,94.2792,VALID,0,VALID,21.7115,VALID,104,VALID,0.435937,
2009-07-04, 03:17:04,VALID,999.837,VALID,0,VALID,94.3555,VALID,0,VALID,21.731,VALID,104,VALID,0.250391,
2009-07-04, 03:18:04,VALID,999.851,VALID,0,VALID,94.2182,VALID,0,VALID,21.7115,VALID,104,VALID,0.229687,
2009-07-04, 03:19:04,VALID,999.823,VALID,0,VALID,94.0961,VALID,0,VALID,21.6725,VALID,104,VALID,0.435547,
2009-07-04, 03:20:04,VALID,999.804,VALID,0,VALID,94.0427,VALID,0,VALID,21.653,VALID,99,VALID,0.607031,
2009-07-04, 03:21:04,VALID,999.799,VALID,0,VALID,94.1571,VALID,0,VALID,21.6546,VALID,75,VALID,0.669531,
2009-07-04, 03:22:04,VALID,999.797,VALID,0,VALID,94.2105,VALID,0,VALID,21.6351,VALID,75,VALID,0.608984,
2009-07-04, 03:23:04,VALID,999.759,VALID,0,VALID,94.18,VALID,0,VALID,21.5945,VALID,41,VALID,0.780078,
2009-07-04, 03:24:04,VALID,999.697,VALID,0,VALID,94.119,VALID,0,VALID,21.575,VALID,30,VALID,0.823438,
2009-07-04, 03:25:04,VALID,999.726,VALID,0,VALID,94.2182,VALID,0,VALID,21.5343,VALID,23,VALID,0.524219,
2009-07-04, 03:26:04,VALID,999.676,VALID,0,VALID,94.2029,VALID,0,VALID,21.5555,VALID,23,VALID,1.2125,
2009-07-04, 03:27:04,VALID,999.687,VALID,0,VALID,94.1266,VALID,0,VALID,21.5165,VALID,19,VALID,1.16523,
2009-07-04, 03:28:04,VALID,999.674,VALID,0,VALID,94.2105,VALID,0,VALID,21.4775,VALID,16,VALID,0.782031,
2009-07-04, 03:29:04,VALID,999.672,VALID,0,VALID,94.2334,VALID,0,VALID,21.4775,VALID,16,VALID,0.559375,
2009-07-04, 03:30:04,VALID,999.668,VALID,0,VALID,94.2716,VALID,0,VALID,21.458,VALID,15,VALID,0.667578,
2009-07-04, 03:31:04,VALID,999.659,VALID,0,VALID,94.2105,VALID,0,VALID,21.4385,VALID,14,VALID,0.490234,
2009-07-04, 03:32:04,VALID,999.668,VALID,0,VALID,94.1724,VALID,0,VALID,21.3783,VALID,14,VALID,0.341797,
2009-07-04, 03:33:04,VALID,999.652,VALID,0,VALID,94.2563,VALID,0,VALID,21.3605,VALID,14,VALID,0.442969,
2009-07-04, 03:34:04,VALID,999.689,VALID,0,VALID,94.4471,VALID,0,VALID,21.4401,VALID,14,VALID,0.757813,
2009-07-04, 03:35:04,VALID,999.741,VALID,0,VALID,94.386,VALID,0,VALID,21.419,VALID,14,VALID,0.621484,
2009-07-04, 03:36:04,VALID,999.729,VALID,0,VALID,94.3479,VALID,0,VALID,21.38,VALID,14,VALID,0.745313,
2009-07-04, 03:37:04,VALID,999.792,VALID,0,VALID,94.4089,VALID,0,VALID,21.3995,VALID,14,VALID,0.676172,
2009-07-04, 03:38:04,VALID,999.797,VALID,0,VALID,94.3403,VALID,0,VALID,21.38,VALID,14,VALID,0.856641,
2009-07-04, 03:39:04,VALID,999.804,VALID,0,VALID,94.5234,VALID,0,VALID,21.38,VALID,19,VALID,0.784766,
2009-07-04, 03:40:04,VALID,999.799,VALID,0,VALID,94.531,VALID,0,VALID,21.419,VALID,28,VALID,0.741406,
2009-07-04, 03:41:04,VALID,999.814,VALID,0,VALID,94.531,VALID,0,VALID,21.419,VALID,37,VALID,0.748047,
2009-07-04, 03:42:04,VALID,999.831,VALID,0,VALID,94.3174,VALID,0,VALID,21.3621,VALID,37,VALID,0.676953,
2009-07-04, 03:43:04,VALID,999.812,VALID,0,VALID,94.3326,VALID,0,VALID,21.3215,VALID,43,VALID,0.757031,
2009-07-04, 03:44:04,VALID,999.787,VALID,0,VALID,94.4928,VALID,0,VALID,21.3426,VALID,49,VALID,0.8375,
2009-07-04, 03:45:04,VALID,999.75,VALID,0,VALID,94.4242,VALID,0,VALID,21.3215,VALID,41,VALID,1.0707,
2009-07-04, 03:46:04,VALID,999.745,VALID,0,VALID,94.4776,VALID,0,VALID,21.3215,VALID,40,VALID,1.20234,
2009-07-04, 03:47:04,VALID,999.738,VALID,0,VALID,94.4547,VALID,0,VALID,21.3215,VALID,35,VALID,1.18359,